Location: �chenoz-la-M�line
(47.6009°N, 6.1354°E)
Time: 12:15:08
(UTC+00:00)

USA 307 - Pass Details

Date: 27 January 2021
Orbit: 562 x 583 km, 54.0° (Epoch: 28 February)

Event Time Altitude Azimuth Distance (km) Brightness Sun altitude
Exits shadow 04:44:27 62° 157° (SSE) 634 3.1 -24.1°
Maximum altitude 04:44:36 63° 144° (SE) 630 3.1 -24.1°
Drops below altitude 10° 04:48:46 10° 64° (ENE) 1,858 6.3 -23.4°
Sets 04:51:02 0° 61° (ENE) 2,757 7.3 -23.0°
